GW4824 Weather Reports


time (UTC)temp
C
wind
direction
speed
KPH
gust
KPH
rain 1hr
cm
rain 24hr
cm
rain mn
cm
humidity
%
barometer
mb
20260505102050 15 114 0.0 0.0 0.00 0.03 0.03 78 1006.5
20260505101549 15 112 0.0 0.0 0.00 0.03 0.03 76 1006.4
20260505101045 15 130 0.0 0.0 0.00 0.03 0.03 75 1006.3
20260505100541 16 194 1.6 1.6 0.00 0.03 0.03 74 1006.5
20260505100038 16 136 1.6 1.6 0.00 0.03 0.03 74 1006.2
20260505095534 16 270 1.6 1.6 0.00 0.03 0.03 74 1006.2
20260505095031 16 247 3.2 3.2 0.00 0.03 0.03 72 1006.3
20260505094528 16 121 1.6 1.6 0.00 0.03 0.03 73 1006.0
20260505094024 16 153 1.6 1.6 0.00 0.03 0.03 72 1005.8
20260505093520 16 90 3.2 3.2 0.00 0.03 0.03 72 1006.0
20260505093018 16 116 1.6 3.2 0.00 0.03 0.03 72 1005.9
20260505092515 16 253 4.8 4.8 0.00 0.03 0.03 71 1005.8
20260505092014 16 208 0.0 1.6 0.00 0.03 0.03 72 1005.9
20260505091510 16 96 1.6 3.2 0.00 0.03 0.03 71 1005.9
20260505091008 16 255 1.6 3.2 0.00 0.03 0.03 72 1006.0
20260505090506 16 94 1.6 1.6 0.00 0.03 0.03 73 1005.9
20260505090003 16 117 1.6 3.2 0.00 0.03 0.03 72 1005.8
20260505085501 16 187 1.6 3.2 0.00 0.03 0.03 72 1005.7
20260505084959 16 53 3.2 4.8 0.00 0.03 0.03 73 1005.5
20260505084457 16 153 1.6 1.6 0.00 0.03 0.03 73 1005.4
20260505083954 16 248 1.6 3.2 0.00 0.03 0.03 71 1005.5
20260505083452 16 240 3.2 3.2 0.00 0.03 0.03 71 1005.4
20260505082948 16 207 4.8 4.8 0.00 0.03 0.03 73 1005.3
20260505082444 16 156 3.2 4.8 0.00 0.03 0.03 75 1005.4
20260505081941 16 211 3.2 3.2 0.00 0.03 0.03 76 1005.1
20260505081438 16 188 4.8 4.8 0.00 0.03 0.03 77 1005.2
20260505080934 16 157 3.2 4.8 0.00 0.03 0.03 78 1005.0
20260505080430 15 179 3.2 3.2 0.00 0.03 0.03 80 1005.2
20260505075926 16 210 3.2 3.2 0.13 0.03 0.03 76 1005.1
20260505075423 17 235 4.8 6.4 0.13 0.03 0.03 71 1005.0
20260505074920 17 198 4.8 6.4 0.00 0.00 0.00 70 1004.9
20260505074417 16 276 3.2 6.4 0.00 0.00 0.00 69 1004.7
20260505073914 16 282 4.8 6.4 0.00 0.00 0.00 73 1004.7
20260505073412 16 251 3.2 4.8 0.00 0.00 0.00 79 1004.7
20260505072909 16 253 6.4 11.3 0.00 0.00 0.00 80 1004.9
20260505072405 18 237 4.8 6.4 0.00 0.00 0.00 67 1004.8
20260505071901 17 300 8.0 9.7 0.00 0.00 0.00 63 1004.5
20260505071358 17 254 3.2 4.8 0.00 0.00 0.00 67 1004.5
20260505070856 17 177 4.8 4.8 0.00 0.00 0.00 67 1004.6
20260505070352 18 252 1.6 3.2 0.00 0.00 0.00 66 1004.8
20260505065848 18 82 1.6 3.2 0.00 0.00 0.00 61 1004.7
20260505065345 18 301 4.8 4.8 0.00 0.00 0.00 61 1004.4
20260505064842 18 254 3.2 3.2 0.00 0.00 0.00 61 1004.6
20260505064339 18 143 3.2 4.8 0.00 0.00 0.00 62 1004.3
20260505063837 18 106 3.2 4.8 0.00 0.00 0.00 61 1004.6
20260505063332 18 25 1.6 3.2 0.00 0.00 0.00 61 1004.6
20260505062829 18 289 3.2 4.8 0.00 0.00 0.00 61 1004.5
20260505062327 18 233 3.2 4.8 0.00 0.00 0.00 60 1004.5
20260505061823 18 10 3.2 3.2 0.00 0.00 0.00 61 1004.8
20260505061322 18 252 4.8 4.8 0.00 0.00 0.00 61 1004.7
20260505060819 18 223 3.2 4.8 0.00 0.00 0.00 63 1004.9
20260505060316 18 288 3.2 4.8 0.00 0.00 0.00 62 1004.9
20260505055811 18 174 3.2 3.2 0.00 0.00 0.00 62 1004.9
20260505055307 18 146 1.6 3.2 0.00 0.00 0.00 61 1005.2
20260505054805 18 122 1.6 3.2 0.00 0.00 0.00 62 1005.1
20260505054302 17 165 1.6 3.2 0.00 0.00 0.00 64 1005.3
20260505053800 17 284 3.2 3.2 0.00 0.00 0.00 67 1005.4
20260505053257 17 122 3.2 3.2 0.00 0.00 0.00 68 1005.1
20260505052754 17 151 1.6 1.6 0.00 0.00 0.00 70 1005.4
20260505052251 17 167 1.6 3.2 0.00 0.00 0.00 70 1005.5
20260505051748 17 122 0.0 1.6 0.00 0.00 0.00 69 1005.5
20260505051246 17 109 0.0 0.0 0.00 0.00 0.00 70 1005.5
20260505050743 17 152 1.6 1.6 0.00 0.00 0.00 68 1005.4
20260505050242 17 122 1.6 1.6 0.00 0.00 0.00 70 1005.4
20260505041712 17 308 4.8 6.4 0.00 0.00 0.00 68 1005.5
20260505041209 17 196 1.6 3.2 0.00 0.00 0.00 69 1005.3
20260505040706 17 176 3.2 3.2 0.00 0.00 0.00 68 1005.4
20260505040203 17 181 1.6 3.2 0.00 0.00 0.00 68 1005.4
20260505035700 17 103 3.2 4.8 0.00 0.00 0.00 67 1005.4
20260505035156 17 316 3.2 3.2 0.00 0.00 0.00 68 1005.3
20260505034652 17 176 4.8 6.4 0.00 0.00 0.00 69 1005.4
20260505034150 17 170 1.6 1.6 0.00 0.00 0.00 70 1005.4
20260505033646 17 151 1.6 1.6 0.00 0.00 0.00 71 1005.3
20260505033144 17 142 1.6 1.6 0.00 0.00 0.00 70 1005.5
20260505032642 17 252 3.2 3.2 0.00 0.00 0.00 69 1005.6
20260505032138 17 181 1.6 1.6 0.00 0.00 0.00 69 1005.5
20260505031636 18 83 0.0 0.0 0.00 0.00 0.00 69 1005.6
20260505031131 17 167 1.6 1.6 0.00 0.00 0.00 69 1005.3
20260505030629 17 175 1.6 3.2 0.00 0.00 0.00 68 1005.5
20260505030124 17 113 1.6 1.6 0.00 0.00 0.00 71 1005.5
20260505025620 17 91 0.0 1.6 0.00 0.00 0.00 70 1005.4
20260505025119 17 138 0.0 1.6 0.00 0.00 0.00 69 1005.5
20260505024616 17 133 0.0 0.0 0.00 0.00 0.00 70 1005.4
20260505024114 17 157 1.6 1.6 0.00 0.00 0.00 69 1005.5
20260505023611 17 139 3.2 4.8 0.00 0.00 0.00 70 1005.6
20260505023108 17 115 0.0 0.0 0.00 0.00 0.00 71 1005.7
20260505022606 17 102 0.0 1.6 0.00 0.00 0.00 69 1005.5
20260505022102 17 114 0.0 1.6 0.00 0.00 0.00 69 1005.6
20260505021559 17 123 1.6 1.6 0.00 0.00 0.00 70 1005.7
20260505021056 17 135 0.0 1.6 0.00 0.00 0.00 70 1005.7
20260505020555 17 96 0.0 0.0 0.00 0.00 0.00 70 1005.5
20260505020053 17 130 3.2 3.2 0.00 0.00 0.00 69 1005.5
20260505015550 17 159 3.2 3.2 0.00 0.00 0.00 69 1005.3
20260505015046 17 128 1.6 4.8 0.00 0.00 0.00 69 1005.5
20260505014543 17 110 0.0 0.0 0.00 0.00 0.00 70 1005.6
20260505014041 17 119 0.0 1.6 0.00 0.00 0.00 69 1005.6
20260505013537 17 110 0.0 0.0 0.00 0.00 0.00 69 1005.5
20260505013035 17 118 1.6 1.6 0.00 0.00 0.00 69 1005.5
20260505012533 17 111 0.0 1.6 0.00 0.00 0.00 68 1005.2
20260505012030 17 178 1.6 3.2 0.00 0.00 0.00 69 1005.4
20260505011525 17 137 3.2 3.2 0.00 0.00 0.00 69 1005.5
20260505011023 17 106 0.0 0.0 0.00 0.00 0.00 69 1005.3
20260505010518 17 135 1.6 3.2 0.00 0.00 0.00 68 1005.3
20260505010015 17 133 1.6 1.6 0.00 0.00 0.00 68 1005.2
20260505005511 17 111 0.0 0.0 0.00 0.00 0.00 68 1005.2
20260505005009 17 142 0.0 1.6 0.00 0.00 0.00 68 1005.2
20260505004506 17 100 0.0 0.0 0.00 0.00 0.00 67 1005.3
20260505004002 18 113 0.0 0.0 0.00 0.00 0.00 66 1005.1
20260505003459 18 110 0.0 0.0 0.00 0.00 0.00 66 1005.3
20260505002956 18 148 0.0 1.6 0.00 0.00 0.00 65 1005.2
20260505002452 18 151 3.2 4.8 0.00 0.00 0.00 63 1005.2
20260505001950 18 99 3.2 3.2 0.00 0.00 0.00 63 1005.2
20260505001448 18 175 4.8 6.4 0.00 0.00 0.00 62 1005.3
20260505000944 18 119 0.0 1.6 0.00 0.00 0.00 61 1005.2
20260505000442 18 105 1.6 1.6 0.00 0.00 0.00 61 1005.2
20260504235939 18 141 3.2 3.2 0.00 0.00 0.00 61 1005.4
20260504235436 18 145 0.0 1.6 0.00 0.00 0.00 62 1005.2
20260504234932 18 263 1.6 3.2 0.00 0.00 0.00 61 1005.1
20260504234430 18 97 0.0 1.6 0.00 0.00 0.00 60 1005.2
20260504233926 19 134 1.6 1.6 0.00 0.00 0.00 59 1005.1
20260504233422 19 182 1.6 1.6 0.00 0.00 0.00 59 1005.1
20260504232919 19 218 3.2 3.2 0.00 0.00 0.00 58 1005.2
20260504232416 19 142 4.8 6.4 0.00 0.00 0.00 57 1005.3
20260504231913 19 177 3.2 4.8 0.00 0.00 0.00 59 1005.4
20260504231409 20 282 4.8 9.7 0.00 0.00 0.00 57 1005.2
20260504230906 20 293 4.8 4.8 0.00 0.00 0.00 56 1005.2
20260504230403 20 93 4.8 9.7 0.00 0.00 0.00 55 1005.5
20260504225902 20 166 3.2 4.8 0.00 0.00 0.00 54 1005.3
20260504225358 20 230 3.2 3.2 0.00 0.00 0.00 55 1005.3
20260504224856 20 62 3.2 3.2 0.00 0.00 0.00 51 1005.4
20260504224352 21 261 4.8 4.8 0.00 0.00 0.00 51 1005.2
20260504223849 21 107 3.2 3.2 0.00 0.00 0.00 53 1005.1
20260504223344 21 167 1.6 1.6 0.00 0.00 0.00 53 1005.2
20260504222841 21 234 3.2 3.2 0.00 0.00 0.00 48 1005.5
20260504222338 21 271 1.6 1.6 0.00 0.00 0.00 49 1005.4
20260504221837 21 35 4.8 9.7 0.00 0.00 0.00 50 1005.4
20260504221333 21 289 3.2 4.8 0.00 0.00 0.00 48 1005.5
20260504220830 21 282 6.4 9.7 0.00 0.00 0.00 48 1005.4
20260504220327 21 146 6.4 6.4 0.00 0.00 0.00 48 1005.3
20260504215824 21 283 4.8 4.8 0.00 0.00 0.00 51 1005.3
20260504215320 21 234 3.2 3.2 0.00 0.00 0.00 53 1005.4
20260504214816 21 255 4.8 6.4 0.00 0.00 0.00 53 1005.3
20260504214314 21 266 1.6 3.2 0.00 0.00 0.00 54 1005.2
20260504213810 21 75 3.2 4.8 0.00 0.00 0.00 54 1005.4
20260504213306 21 155 3.2 3.2 0.00 0.00 0.00 53 1005.3
20260504212804 21 181 3.2 4.8 0.00 0.00 0.00 54 1005.6
20260504212300 21 133 3.2 4.8 0.00 0.00 0.00 51 1005.6
20260504211757 22 156 6.4 9.7 0.00 0.00 0.00 54 1005.6
20260504211253 22 155 4.8 6.4 0.00 0.00 0.00 51 1005.6
20260504210751 22 104 11.3 16.1 0.00 0.00 0.00 49 1005.9
20260504210248 22 163 3.2 4.8 0.00 0.00 0.00 50 1005.6
20260504205745 22 326 6.4 6.4 0.00 0.00 0.00 51 1005.7
20260504205243 22 140 8.0 9.7 0.00 0.00 0.00 51 1005.5
20260504204741 22 177 4.8 4.8 0.00 0.00 0.00 49 1005.6
20260504204239 22 256 9.7 11.3 0.00 0.00 0.00 50 1005.5
20260504203738 22 264 6.4 6.4 0.00 0.00 0.00 50 1005.6
20260504203235 23 244 6.4 6.4 0.00 0.00 0.00 49 1005.8
20260504202735 23 228 6.4 9.7 0.00 0.00 0.00 50 1005.9
20260504202232 23 99 3.2 3.2 0.00 0.00 0.00 50 1005.9
20260504201729 22 273 4.8 4.8 0.00 0.00 0.00 50 1005.9
20260504201226 22 307 4.8 6.4 0.00 0.00 0.00 49 1005.8
20260504200724 22 273 6.4 6.4 0.00 0.00 0.00 51 1005.9
20260504200220 22 272 6.4 6.4 0.00 0.00 0.00 48 1006.1
20260504195716 23 20 4.8 4.8 0.00 0.00 0.00 48 1006.0
20260504195212 22 112 3.2 4.8 0.00 0.00 0.00 49 1006.2
20260504194709 23 299 3.2 6.4 0.00 0.00 0.00 53 1006.0
20260504194206 23 254 4.8 6.4 0.00 0.00 0.00 49 1005.8
20260504193702 23 178 3.2 4.8 0.00 0.00 0.00 49 1006.1
20260504193200 22 263 3.2 4.8 0.00 0.00 0.00 53 1006.4
20260504192658 22 283 3.2 4.8 0.00 0.00 0.00 48 1006.2
20260504192155 22 53 3.2 4.8 0.00 0.00 0.00 50 1006.0
20260504191654 22 259 6.4 6.4 0.00 0.00 0.00 51 1006.2
20260504191149 22 38 6.4 11.3 0.00 0.00 0.00 52 1006.4
20260504190646 22 146 3.2 3.2 0.00 0.00 0.00 53 1006.1
20260504190143 22 248 1.6 3.2 0.00 0.00 0.00 51 1006.4
20260504185639 22 343 4.8 6.4 0.00 0.00 0.00 51 1006.4
20260504185136 21 310 1.6 1.6 0.00 0.00 0.00 54 1006.4
20260504184632 21 347 1.6 3.2 0.00 0.00 0.00 52 1006.5
20260504184127 21 236 4.8 11.3 0.00 0.00 0.00 52 1006.6
20260504183624 21 102 1.6 3.2 0.00 0.00 0.00 52 1006.7
20260504183122 21 202 4.8 4.8 0.00 0.00 0.00 53 1006.9
20260504182619 22 111 1.6 3.2 0.00 0.00 0.00 53 1006.7
20260504182117 21 95 3.2 4.8 0.00 0.00 0.00 52 1006.8
20260504181614 21 158 0.0 0.0 0.00 0.00 0.00 57 1006.9
20260504181111 21 167 3.2 3.2 0.00 0.00 0.00 58 1007.2
20260504180610 21 97 3.2 4.8 0.00 0.00 0.00 53 1006.9
20260504180109 20 182 3.2 3.2 0.00 0.00 0.00 54 1007.2
20260504175606 20 130 1.6 3.2 0.00 0.00 0.00 53 1007.1
20260504175102 20 241 4.8 6.4 0.00 0.00 0.00 54 1007.1
20260504174600 20 284 8.0 9.7 0.00 0.00 0.00 56 1007.1
20260504174056 20 219 3.2 6.4 0.00 0.00 0.00 53 1007.2
20260504173553 20 299 3.2 4.8 0.00 0.00 0.00 54 1007.1
20260504173051 20 162 3.2 3.2 0.00 0.00 0.00 57 1007.2
20260504172547 20 273 1.6 3.2 0.00 0.00 0.00 57 1007.1
20260504172044 20 187 3.2 4.8 0.00 0.00 0.00 56 1007.2
20260504171541 19 142 6.4 6.4 0.00 0.00 0.00 56 1007.2
20260504171038 19 193 3.2 3.2 0.00 0.00 0.00 56 1007.4
20260504170533 19 276 4.8 4.8 0.00 0.00 0.00 57 1007.6
20260504150917 17 214 6.4 6.4 0.00 0.00 0.00 56 1008.2
20260504150414 17 76 1.6 3.2 0.00 0.00 0.00 60 1008.4
20260504140841 15 8 3.2 4.8 0.00 0.00 0.00 56 1008.6
20260504140336 16 146 1.6 3.2 0.00 0.00 0.00 58 1008.9
20260504130805 13 87 1.6 1.6 0.00 0.00 0.00 61 1009.0
20260504130301 13 97 1.6 3.2 0.00 0.00 0.00 59 1008.9
20260504120225 10 104 0.0 0.0 0.00 0.00 0.00 70 1009.2
20260504110652 8 96 0.0 0.0 0.00 0.00 0.00 72 1008.9
20260504110148 8 106 0.0 0.0 0.00 0.00 0.00 70 1008.7